Voltar ao catálogo

STARLINK-36912

AtivoComunicaçõesSSO
NORAD 67961·PAYLOAD·🇺🇸 United States

Lançado Feb 25, 2026 de Vandenberg Space Force Base

Loading…

Próximas Passagens (próximas 24 horas)

TLE

AtualizadoSource: CelesTrak SupGP

Época: Sep 14, 2026, 23:04 UTC

1 67961C 26038A   26257.96159722  .00025160  00000+0  78091-3 0  2579
2 67961  97.2841 266.3134 0001532  74.6942 164.0758 15.33430877    13

Acompanhe STARLINK-36912 em tempo real com AllMySat

Download on the App Store